Time,TemperatureF,DewpointF,PressureIn,WindDirection,WindDirectionDegrees,WindSpeedMPH,WindSpeedGustMPH,Humidity,HourlyPrecipIn,Conditions,Clouds,dailyrainin,SoftwareType,DateUTC
2013-10-18 00:01:00,73.8,70.3,29.93,NNW,338,0.0,0.0,89,0.00,,,0.00,WeatherCatV1.21B27,2013-10-18 04:01:00,
2013-10-18 00:02:00,73.9,70.4,29.93,NNW,338,0.0,0.0,89,0.00,,,0.00,WeatherCatV1.21B27,2013-10-18 04:02:00,
2013-10-18 00:07:00,73.8,70.3,29.92,NNW,338,0.0,0.0,89,0.00,,,0.00,WeatherCatV1.21B27,2013-10-18 04:07:00,
2013-10-18 00:12:00,73.8,70.3,29.92,NNW,338,0.0,0.0,89,0.00,,,0.00,WeatherCatV1.21B27,2013-10-18 04:12:00,
2013-10-18 00:17:00,73.9,70.4,29.92,NNW,338,0.0,0.0,89,0.00,,,0.00,WeatherCatV1.21B27,2013-10-18 04:17:00,
2013-10-18 00:22:00,73.8,70.3,29.92,NNW,338,0.0,0.0,89,0.00,,,0.00,WeatherCatV1.21B27,2013-10-18 04:22:00,
2013-10-18 00:27:00,73.7,70.2,29.92,NNW,338,0.0,0.0,89,0.00,,,0.00,WeatherCatV1.21B27,2013-10-18 04:27:00,
2013-10-18 00:32:00,73.6,70.2,29.92,NNW,338,0.0,0.0,89,0.00,,,0.00,WeatherCatV1.21B27,2013-10-18 04:32:00,
2013-10-18 00:37:00,73.5,70.1,29.92,NNW,338,0.0,0.0,89,0.00,,,0.00,WeatherCatV1.21B27,2013-10-18 04:37:00,
2013-10-18 00:42:00,73.5,70.1,29.92,NNW,338,0.0,0.0,89,0.00,,,0.00,WeatherCatV1.21B27,2013-10-18 04:42:00,
2013-10-18 00:47:00,73.4,69.9,29.92,NNW,338,0.0,0.0,89,0.00,,,0.00,WeatherCatV1.21B27,2013-10-18 04:47:00,
2013-10-18 00:52:00,73.3,70.2,29.92,NNW,338,0.0,0.0,90,0.00,,,0.00,WeatherCatV1.21B27,2013-10-18 04:52:00,
2013-10-18 00:57:00,73.3,70.2,29.92,NNW,338,0.0,0.0,90,0.00,,,0.00,WeatherCatV1.21B27,2013-10-18 04:57:00,
2013-10-18 01:02:00,73.2,70.1,29.92,NNW,338,0.0,0.0,90,0.00,,,0.00,WeatherCatV1.21B27,2013-10-18 05:02:00,
2013-10-18 01:07:00,73.2,70.1,29.91,NNW,338,0.0,0.0,90,0.00,,,0.00,WeatherCatV1.21B27,2013-10-18 05:07:00,
2013-10-18 01:12:00,73.2,70.1,29.92,NNW,338,0.0,0.0,90,0.00,,,0.00,WeatherCatV1.21B27,2013-10-18 05:12:00,
2013-10-18 01:17:00,73.1,70.0,29.91,NNW,338,0.0,0.0,90,0.00,,,0.00,WeatherCatV1.21B27,2013-10-18 05:17:00,
2013-10-18 01:22:00,73.1,70.0,29.91,NNW,338,0.0,0.0,90,0.00,,,0.00,WeatherCatV1.21B27,2013-10-18 05:22:00,
2013-10-18 01:27:00,73.1,70.0,29.91,NNW,338,0.0,0.0,90,0.00,,,0.00,WeatherCatV1.21B27,2013-10-18 05:27:00,
2013-10-18 01:32:00,73.0,69.9,29.91,NNW,338,0.0,0.0,90,0.00,,,0.00,WeatherCatV1.21B27,2013-10-18 05:32:00,
2013-10-18 01:37:00,72.9,69.8,29.91,NNW,338,0.0,0.0,90,0.00,,,0.00,WeatherCatV1.21B27,2013-10-18 05:37:00,
2013-10-18 01:42:00,72.9,69.8,29.91,NNW,338,0.0,0.0,90,0.00,,,0.00,WeatherCatV1.21B27,2013-10-18 05:42:00,
2013-10-18 01:47:00,72.8,69.7,29.91,NNW,338,0.0,0.0,90,0.00,,,0.00,WeatherCatV1.21B27,2013-10-18 05:47:00,
2013-10-18 01:52:00,72.7,69.6,29.91,NNW,338,0.0,0.0,90,0.00,,,0.00,WeatherCatV1.21B27,2013-10-18 05:52:00,
2013-10-18 01:57:00,72.7,69.9,29.91,NNW,338,0.0,0.0,91,0.00,,,0.00,WeatherCatV1.21B27,2013-10-18 05:57:00,
2013-10-18 02:02:00,72.7,69.6,29.91,NNW,338,0.0,0.0,90,0.00,,,0.00,WeatherCatV1.21B27,2013-10-18 06:02:00,
2013-10-18 02:07:00,72.6,69.5,29.91,NNW,338,0.0,0.0,90,0.00,,,0.00,WeatherCatV1.21B27,2013-10-18 06:07:00,
2013-10-18 02:12:00,72.6,69.5,29.91,NNW,338,0.0,0.0,90,0.00,,,0.00,WeatherCatV1.21B27,2013-10-18 06:12:00,
2013-10-18 02:17:00,72.6,69.8,29.91,NNW,338,0.0,0.0,91,0.00,,,0.00,WeatherCatV1.21B27,2013-10-18 06:17:00,
2013-10-18 02:22:00,72.7,69.9,29.90,NNW,338,0.0,0.0,91,0.00,,,0.00,WeatherCatV1.21B27,2013-10-18 06:22:00,
2013-10-18 02:27:00,72.6,69.5,29.91,NNW,338,0.0,0.0,90,0.00,,,0.00,WeatherCatV1.21B27,2013-10-18 06:27:00,
2013-10-18 02:32:00,72.5,69.4,29.91,NNW,338,0.0,0.0,90,0.00,,,0.00,WeatherCatV1.21B27,2013-10-18 06:32:00,
2013-10-18 02:37:00,72.4,69.6,29.91,NNW,338,0.0,0.0,91,0.00,,,0.00,WeatherCatV1.21B27,2013-10-18 06:37:00,
2013-10-18 02:42:00,72.3,69.5,29.90,NNW,338,0.0,0.0,91,0.00,,,0.00,WeatherCatV1.21B27,2013-10-18 06:42:00,
2013-10-18 02:47:00,72.4,69.6,29.90,NNW,338,0.0,0.0,91,0.00,,,0.00,WeatherCatV1.21B27,2013-10-18 06:47:00,
2013-10-18 02:52:00,72.3,69.5,29.90,NNW,338,0.0,2.0,91,0.00,,,0.00,WeatherCatV1.21B27,2013-10-18 06:52:00,
2013-10-18 02:57:00,72.3,69.5,29.90,NNW,338,0.0,0.0,91,0.00,,,0.00,WeatherCatV1.21B27,2013-10-18 06:57:00,
2013-10-18 03:02:00,72.3,69.5,29.90,NNW,338,0.0,0.0,91,0.00,,,0.00,WeatherCatV1.21B27,2013-10-18 07:02:00,
2013-10-18 03:07:00,72.3,69.5,29.90,NNW,338,0.0,0.0,91,0.00,,,0.00,WeatherCatV1.21B27,2013-10-18 07:07:00,
2013-10-18 03:12:00,72.2,69.4,29.90,NNW,338,0.0,0.0,91,0.00,,,0.00,WeatherCatV1.21B27,2013-10-18 07:12:00,
2013-10-18 03:17:00,72.1,69.3,29.90,NNW,338,0.0,0.0,91,0.00,,,0.00,WeatherCatV1.21B27,2013-10-18 07:17:00,
2013-10-18 03:22:00,72.0,69.2,29.90,NNW,338,0.0,0.0,91,0.00,,,0.00,WeatherCatV1.21B27,2013-10-18 07:22:00,
2013-10-18 03:27:00,71.9,69.1,29.90,NNW,338,0.0,0.0,91,0.00,,,0.00,WeatherCatV1.21B27,2013-10-18 07:27:00,
2013-10-18 03:32:00,71.9,69.1,29.90,NNW,338,0.0,0.0,91,0.00,,,0.00,WeatherCatV1.21B27,2013-10-18 07:32:00,
2013-10-18 03:37:00,71.8,69.0,29.90,NNW,338,0.0,0.0,91,0.00,,,0.00,WeatherCatV1.21B27,2013-10-18 07:37:00,
2013-10-18 03:42:00,71.7,68.9,29.90,NNW,338,0.0,0.0,91,0.00,,,0.00,WeatherCatV1.21B27,2013-10-18 07:42:00,
2013-10-18 03:47:00,71.7,68.9,29.90,NNW,338,0.0,0.0,91,0.00,,,0.00,WeatherCatV1.21B27,2013-10-18 07:47:00,
2013-10-18 03:52:00,71.7,68.9,29.90,NNW,338,0.0,0.0,91,0.00,,,0.00,WeatherCatV1.21B27,2013-10-18 07:52:00,
2013-10-18 03:57:00,71.5,68.7,29.90,NNW,338,0.0,0.0,91,0.00,,,0.00,WeatherCatV1.21B27,2013-10-18 07:57:00,
2013-10-18 04:02:00,71.5,68.7,29.90,NNW,338,0.0,0.0,91,0.00,,,0.00,WeatherCatV1.21B27,2013-10-18 08:02:00,
2013-10-18 04:07:00,71.4,68.6,29.90,NNW,338,0.0,0.0,91,0.00,,,0.00,WeatherCatV1.21B27,2013-10-18 08:07:00,
2013-10-18 04:12:00,71.4,68.6,29.90,NNW,338,0.0,0.0,91,0.00,,,0.00,WeatherCatV1.21B27,2013-10-18 08:12:00,
2013-10-18 04:17:00,71.2,68.4,29.90,NNW,338,0.0,0.0,91,0.00,,,0.00,WeatherCatV1.21B27,2013-10-18 08:17:00,
2013-10-18 04:22:00,71.2,68.4,29.90,NNW,338,0.0,0.0,91,0.00,,,0.00,WeatherCatV1.21B27,2013-10-18 08:22:00,
2013-10-18 04:27:00,71.1,68.3,29.90,NNW,338,0.0,0.0,91,0.00,,,0.00,WeatherCatV1.21B27,2013-10-18 08:27:00,
2013-10-18 04:32:00,71.1,68.7,29.90,NNW,338,0.0,0.0,92,0.00,,,0.00,WeatherCatV1.21B27,2013-10-18 08:32:00,
2013-10-18 04:37:00,71.1,68.7,29.90,NNW,338,0.0,0.0,92,0.00,,,0.00,WeatherCatV1.21B27,2013-10-18 08:37:00,
2013-10-18 04:42:00,71.1,68.7,29.90,NNW,338,0.0,0.0,92,0.00,,,0.00,WeatherCatV1.21B27,2013-10-18 08:42:00,
2013-10-18 04:47:00,71.0,68.6,29.90,NNW,338,0.0,0.0,92,0.00,,,0.00,WeatherCatV1.21B27,2013-10-18 08:47:00,
2013-10-18 04:52:00,71.1,68.7,29.90,NNW,338,0.0,0.0,92,0.00,,,0.00,WeatherCatV1.21B27,2013-10-18 08:52:00,
2013-10-18 04:57:00,71.1,68.7,29.90,NNW,338,0.0,0.0,92,0.00,,,0.00,WeatherCatV1.21B27,2013-10-18 08:57:00,
2013-10-18 05:02:00,71.1,68.7,29.90,NNW,338,0.0,0.0,92,0.00,,,0.00,WeatherCatV1.21B27,2013-10-18 09:02:00,
2013-10-18 05:07:00,71.1,68.7,29.91,NNW,338,0.0,0.0,92,0.00,,,0.00,WeatherCatV1.21B27,2013-10-18 09:07:00,
2013-10-18 05:12:00,71.1,68.7,29.91,NNW,338,0.0,0.0,92,0.00,,,0.00,WeatherCatV1.21B27,2013-10-18 09:12:00,
2013-10-18 05:17:00,71.1,68.7,29.91,NNW,338,0.0,0.0,92,0.00,,,0.00,WeatherCatV1.21B27,2013-10-18 09:17:00,
2013-10-18 05:22:00,71.2,68.8,29.91,NNW,338,0.0,1.0,92,0.00,,,0.00,WeatherCatV1.21B27,2013-10-18 09:22:00,
2013-10-18 05:27:00,71.3,69.2,29.91,NNW,343,0.0,1.0,93,0.00,,,0.00,WeatherCatV1.21B27,2013-10-18 09:27:00,
2013-10-18 05:32:00,71.4,69.3,29.91,NNW,343,0.0,1.0,93,0.00,,,0.00,WeatherCatV1.21B27,2013-10-18 09:32:00,
2013-10-18 05:37:00,71.4,69.3,29.91,NNW,343,0.0,0.0,93,0.00,,,0.00,WeatherCatV1.21B27,2013-10-18 09:37:00,
2013-10-18 05:42:00,71.5,69.4,29.91,NNW,343,0.0,0.0,93,0.00,,,0.00,WeatherCatV1.21B27,2013-10-18 09:42:00,
2013-10-18 05:47:00,71.5,69.4,29.91,NNW,343,0.0,0.0,93,0.00,,,0.00,WeatherCatV1.21B27,2013-10-18 09:47:00,
2013-10-18 05:52:00,71.5,69.1,29.91,NNW,343,0.0,0.0,92,0.00,,,0.00,WeatherCatV1.21B27,2013-10-18 09:52:00,
2013-10-18 05:57:00,71.5,69.1,29.92,NNW,343,0.0,0.0,92,0.00,,,0.00,WeatherCatV1.21B27,2013-10-18 09:57:00,
2013-10-18 06:02:00,71.5,69.4,29.91,NNW,343,0.0,0.0,93,0.00,,,0.00,WeatherCatV1.21B27,2013-10-18 10:02:00,
2013-10-18 06:07:00,71.5,69.4,29.91,NNW,343,0.0,0.0,93,0.00,,,0.00,WeatherCatV1.21B27,2013-10-18 10:07:00,
2013-10-18 06:12:00,71.5,69.1,29.92,NNW,343,0.0,0.0,92,0.00,,,0.00,WeatherCatV1.21B27,2013-10-18 10:12:00,
2013-10-18 06:17:00,71.5,69.1,29.92,NNW,343,0.0,0.0,92,0.00,,,0.00,WeatherCatV1.21B27,2013-10-18 10:17:00,
2013-10-18 06:22:00,71.5,69.1,29.92,NNW,343,0.0,1.0,92,0.00,,,0.00,WeatherCatV1.21B27,2013-10-18 10:22:00,
2013-10-18 06:27:00,71.5,69.4,29.92,NNW,343,0.0,0.0,93,0.00,,,0.00,WeatherCatV1.21B27,2013-10-18 10:27:00,
2013-10-18 06:32:00,71.5,69.1,29.92,NNW,343,0.0,0.0,92,0.00,,,0.00,WeatherCatV1.21B27,2013-10-18 10:32:00,
2013-10-18 06:37:00,71.5,69.4,29.92,NNW,343,0.0,0.0,93,0.00,,,0.00,WeatherCatV1.21B27,2013-10-18 10:37:00,
2013-10-18 06:42:00,71.5,69.4,29.92,NNW,343,0.0,0.0,93,0.00,,,0.00,WeatherCatV1.21B27,2013-10-18 10:42:00,
2013-10-18 06:47:00,71.4,68.9,29.92,NNW,343,0.0,0.0,92,0.00,,,0.00,WeatherCatV1.21B27,2013-10-18 10:47:00,
2013-10-18 06:52:00,71.3,68.8,29.92,NNW,343,0.0,0.0,92,0.00,,,0.00,WeatherCatV1.21B27,2013-10-18 10:52:00,
2013-10-18 06:57:00,71.3,69.2,29.92,NNW,343,0.0,0.0,93,0.00,,,0.00,WeatherCatV1.21B27,2013-10-18 10:57:00,
2013-10-18 07:02:00,71.3,69.2,29.93,NNW,343,0.0,0.0,93,0.00,,,0.00,WeatherCatV1.21B27,2013-10-18 11:02:00,
2013-10-18 07:07:00,71.4,69.3,29.93,NNW,343,0.0,0.0,93,0.00,,,0.00,WeatherCatV1.21B27,2013-10-18 11:07:00,
2013-10-18 07:12:00,71.4,69.3,29.93,NNW,343,0.0,2.0,93,0.00,,,0.00,WeatherCatV1.21B27,2013-10-18 11:12:00,
2013-10-18 07:17:00,71.4,69.3,29.93,NNW,343,0.0,0.0,93,0.00,,,0.00,WeatherCatV1.21B27,2013-10-18 11:17:00,
2013-10-18 07:22:00,71.3,69.2,29.93,NNW,343,0.0,0.0,93,0.00,,,0.00,WeatherCatV1.21B27,2013-10-18 11:22:00,
2013-10-18 07:27:00,71.3,68.8,29.93,NNW,343,0.0,0.0,92,0.00,,,0.00,WeatherCatV1.21B27,2013-10-18 11:27:00,
2013-10-18 07:32:00,71.2,69.1,29.93,NNW,343,0.0,0.0,93,0.00,,,0.00,WeatherCatV1.21B27,2013-10-18 11:32:00,
2013-10-18 07:37:00,71.3,69.2,29.94,NNW,343,0.0,1.0,93,0.00,,,0.00,WeatherCatV1.21B27,2013-10-18 11:37:00,
2013-10-18 07:42:00,71.3,69.2,29.94,NNW,343,0.0,0.0,93,0.00,,,0.00,WeatherCatV1.21B27,2013-10-18 11:42:00,
2013-10-18 07:47:00,71.3,69.2,29.94,NNW,343,0.0,1.0,93,0.00,,,0.00,WeatherCatV1.21B27,2013-10-18 11:47:00,
2013-10-18 07:52:00,71.3,69.2,29.94,NNW,347,0.0,1.0,93,0.00,,,0.00,WeatherCatV1.21B27,2013-10-18 11:52:00,
2013-10-18 07:57:00,71.4,69.3,29.94,NNW,347,0.0,0.0,93,0.00,,,0.00,WeatherCatV1.21B27,2013-10-18 11:57:00,
2013-10-18 08:02:00,71.5,69.4,29.94,NNW,347,0.0,0.0,93,0.00,,,0.00,WeatherCatV1.21B27,2013-10-18 12:02:00,
2013-10-18 08:07:00,71.5,69.4,29.95,NNW,347,0.0,0.0,93,0.00,,,0.00,WeatherCatV1.21B27,2013-10-18 12:07:00,
2013-10-18 08:12:00,71.6,69.5,29.95,NNW,347,0.0,0.0,93,0.00,,,0.00,WeatherCatV1.21B27,2013-10-18 12:12:00,
2013-10-18 08:17:00,71.7,69.6,29.95,NNW,347,0.0,0.0,93,0.00,,,0.00,WeatherCatV1.21B27,2013-10-18 12:17:00,
2013-10-18 08:22:00,71.8,69.7,29.95,NNW,347,0.0,0.0,93,0.00,,,0.00,WeatherCatV1.21B27,2013-10-18 12:22:00,
2013-10-18 08:27:00,72.0,69.9,29.96,NNW,347,0.0,0.0,93,0.00,,,0.00,WeatherCatV1.21B27,2013-10-18 12:27:00,
2013-10-18 08:32:00,72.3,70.2,29.95,NNW,347,0.0,0.0,93,0.00,,,0.00,WeatherCatV1.21B27,2013-10-18 12:32:00,
2013-10-18 08:37:00,72.7,70.2,29.95,NNW,347,0.0,1.0,92,0.00,,,0.00,WeatherCatV1.21B27,2013-10-18 12:37:00,
2013-10-18 08:42:00,73.0,70.5,29.96,ESE,105,0.0,4.0,92,0.00,,,0.00,WeatherCatV1.21B27,2013-10-18 12:42:00,
2013-10-18 08:47:00,73.4,70.6,29.96,ESE,119,0.0,1.0,91,0.00,,,0.00,WeatherCatV1.21B27,2013-10-18 12:47:00,
2013-10-18 08:52:00,73.9,70.8,29.96,SSE,148,0.0,1.0,90,0.00,,,0.00,WeatherCatV1.21B27,2013-10-18 12:52:00,
2013-10-18 08:57:00,74.3,70.8,29.96,SSE,148,0.0,0.0,89,0.00,,,0.00,WeatherCatV1.21B27,2013-10-18 12:57:00,
2013-10-18 09:02:00,74.7,71.2,29.96,ESE,107,0.0,2.0,89,0.00,,,0.00,WeatherCatV1.21B27,2013-10-18 13:02:00,
2013-10-18 09:07:00,75.2,71.4,29.96,East,96,0.0,1.0,88,0.00,,,0.00,WeatherCatV1.21B27,2013-10-18 13:07:00,
2013-10-18 09:12:00,75.5,71.3,29.96,East,96,0.0,1.0,87,0.00,,,0.00,WeatherCatV1.21B27,2013-10-18 13:12:00,
2013-10-18 09:17:00,75.9,71.7,29.97,East,96,0.0,2.0,87,0.00,,,0.00,WeatherCatV1.21B27,2013-10-18 13:17:00,
2013-10-18 09:22:00,76.3,71.8,29.97,East,96,0.0,1.0,86,0.00,,,0.00,WeatherCatV1.21B27,2013-10-18 13:22:00,
2013-10-18 09:27:00,76.8,71.9,29.97,ESE,109,0.0,3.0,85,0.00,,,0.00,WeatherCatV1.21B27,2013-10-18 13:27:00,
2013-10-18 09:32:00,77.1,71.9,29.97,ENE,74,1.0,4.0,84,0.00,,,0.00,WeatherCatV1.21B27,2013-10-18 13:32:00,
2013-10-18 09:37:00,77.4,72.2,29.97,ENE,78,0.0,2.0,84,0.00,,,0.00,WeatherCatV1.21B27,2013-10-18 13:37:00,
2013-10-18 09:42:00,77.6,72.0,29.97,East,81,0.0,2.0,83,0.00,,,0.00,WeatherCatV1.21B27,2013-10-18 13:42:00,
2013-10-18 09:47:00,77.7,72.1,29.97,ESE,108,1.0,2.0,83,0.00,,,0.00,WeatherCatV1.21B27,2013-10-18 13:47:00,
2013-10-18 09:52:00,78.0,72.8,29.97,ESE,108,0.0,0.0,84,0.00,,,0.00,WeatherCatV1.21B27,2013-10-18 13:52:00,
2013-10-18 09:57:00,78.5,72.9,29.97,East,89,2.0,2.0,83,0.00,,,0.00,WeatherCatV1.21B27,2013-10-18 13:57:00,
2013-10-18 10:02:00,78.7,72.7,29.97,ESE,104,0.0,0.0,82,0.00,,,0.00,WeatherCatV1.21B27,2013-10-18 14:02:00,
2013-10-18 10:08:00,79.1,72.8,29.97,ESE,115,0.0,1.0,81,0.00,,,0.00,WeatherCatV1.21B27,2013-10-18 14:08:00,
2013-10-18 10:13:00,79.4,73.0,29.97,East,94,0.0,2.0,81,0.00,,,0.00,WeatherCatV1.21B27,2013-10-18 14:13:00,
2013-10-18 10:18:00,79.7,73.3,29.97,East,92,1.0,2.0,81,0.00,,,0.00,WeatherCatV1.21B27,2013-10-18 14:18:00,
2013-10-18 10:23:00,80.2,73.1,29.97,SE,140,0.0,0.0,79,0.00,,,0.00,WeatherCatV1.21B27,2013-10-18 14:23:00,
2013-10-18 10:28:00,80.7,73.6,29.97,East,96,2.0,2.0,79,0.00,,,0.00,WeatherCatV1.21B27,2013-10-18 14:28:00,
2013-10-18 10:33:00,81.3,74.1,29.97,South,169,1.0,1.0,79,0.00,,,0.00,WeatherCatV1.21B27,2013-10-18 14:33:00,
2013-10-18 10:38:00,81.9,74.0,29.97,South,184,0.0,2.0,77,0.00,,,0.00,WeatherCatV1.21B27,2013-10-18 14:38:00,
2013-10-18 10:43:00,82.4,74.1,29.97,ESE,104,4.0,4.0,76,0.00,,,0.00,WeatherCatV1.21B27,2013-10-18 14:43:00,
2013-10-18 10:48:00,82.5,74.2,29.97,ENE,59,0.0,1.0,76,0.00,,,0.00,WeatherCatV1.21B27,2013-10-18 14:48:00,
2013-10-18 10:53:00,82.6,73.8,29.97,ENE,69,0.0,0.0,75,0.00,,,0.00,WeatherCatV1.21B27,2013-10-18 14:53:00,
2013-10-18 10:58:00,83.2,74.0,29.97,SSE,165,0.0,1.0,74,0.00,,,0.00,WeatherCatV1.21B27,2013-10-18 14:58:00,
2013-10-18 11:03:00,83.9,74.3,29.97,SE,139,1.0,3.0,73,0.00,,,0.00,WeatherCatV1.21B27,2013-10-18 15:03:00,
2013-10-18 11:08:00,84.2,74.6,29.97,NNE,18,1.0,1.0,73,0.00,,,0.00,WeatherCatV1.21B27,2013-10-18 15:08:00,
2013-10-18 11:13:00,84.5,74.0,29.97,East,92,1.0,7.0,71,0.00,,,0.00,WeatherCatV1.21B27,2013-10-18 15:13:00,
2013-10-18 11:18:00,84.8,73.9,29.98,NNE,13,3.0,5.0,70,0.00,,,0.00,WeatherCatV1.21B27,2013-10-18 15:18:00,
2013-10-18 11:23:00,84.8,73.9,29.98,ENE,69,0.0,6.0,70,0.00,,,0.00,WeatherCatV1.21B27,2013-10-18 15:23:00,
2013-10-18 11:28:00,85.0,73.7,29.98,East,98,1.0,4.0,69,0.00,,,0.00,WeatherCatV1.21B27,2013-10-18 15:28:00,
2013-10-18 11:33:00,85.5,74.1,29.98,SE,142,0.0,1.0,69,0.00,,,0.00,WeatherCatV1.21B27,2013-10-18 15:33:00,
2013-10-18 11:38:00,85.9,74.1,29.98,ENE,70,4.0,4.0,68,0.00,,,0.00,WeatherCatV1.21B27,2013-10-18 15:38:00,
2013-10-18 11:43:00,86.2,74.8,29.97,SSE,167,1.0,7.0,69,0.00,,,0.00,WeatherCatV1.21B27,2013-10-18 15:43:00,
2013-10-18 11:48:00,86.6,73.8,29.97,ESE,104,3.0,5.0,66,0.00,,,0.00,WeatherCatV1.21B27,2013-10-18 15:48:00,
2013-10-18 11:53:00,86.7,74.8,29.97,WSW,251,1.0,4.0,68,0.00,,,0.00,WeatherCatV1.21B27,2013-10-18 15:53:00,
2013-10-18 11:58:00,87.1,76.1,29.97,WSW,250,1.0,3.0,70,0.00,,,0.00,WeatherCatV1.21B27,2013-10-18 15:58:00,
2013-10-18 12:03:00,87.2,75.8,29.97,WSW,249,0.0,1.0,69,0.00,,,0.00,WeatherCatV1.21B27,2013-10-18 16:03:00,
2013-10-18 12:08:00,86.8,75.4,29.97,West,276,1.0,5.0,69,0.00,,,0.00,WeatherCatV1.21B27,2013-10-18 16:08:00,
2013-10-18 12:13:00,86.3,75.3,29.97,SW,222,0.0,6.0,70,0.00,,,0.00,WeatherCatV1.21B27,2013-10-18 16:13:00,
2013-10-18 12:18:00,86.1,75.1,29.96,West,263,0.0,4.0,70,0.00,,,0.00,WeatherCatV1.21B27,2013-10-18 16:18:00,
2013-10-18 12:23:00,85.8,74.4,29.96,SSW,213,1.0,3.0,69,0.00,,,0.00,WeatherCatV1.21B27,2013-10-18 16:23:00,
2013-10-18 12:28:00,86.1,75.6,29.96,WSW,256,0.0,1.0,71,0.00,,,0.00,WeatherCatV1.21B27,2013-10-18 16:28:00,
2013-10-18 12:33:00,86.1,75.1,29.96,SSW,196,0.0,1.0,70,0.00,,,0.00,WeatherCatV1.21B27,2013-10-18 16:33:00,
2013-10-18 12:38:00,85.9,74.9,29.96,West,259,5.0,5.0,70,0.00,,,0.00,WeatherCatV1.21B27,2013-10-18 16:38:00,
2013-10-18 12:43:00,86.1,75.6,29.95,West,277,1.0,4.0,71,0.00,,,0.00,WeatherCatV1.21B27,2013-10-18 16:43:00,
2013-10-18 12:48:00,86.6,75.6,29.95,SSE,165,4.0,4.0,70,0.00,,,0.00,WeatherCatV1.21B27,2013-10-18 16:48:00,
2013-10-18 12:53:00,87.2,75.8,29.95,SW,230,0.0,1.0,69,0.00,,,0.00,WeatherCatV1.21B27,2013-10-18 16:53:00,
2013-10-18 12:58:00,87.9,75.5,29.95,WSW,243,3.0,5.0,67,0.00,,,0.00,WeatherCatV1.21B27,2013-10-18 16:58:00,
2013-10-18 13:03:00,88.2,75.4,29.94,WSW,240,2.0,5.0,66,0.00,,,0.00,WeatherCatV1.21B27,2013-10-18 17:03:00,
2013-10-18 13:08:00,88.3,75.0,29.94,WSW,241,1.0,6.0,65,0.00,,,0.00,WeatherCatV1.21B27,2013-10-18 17:08:00,
2013-10-18 13:13:00,88.4,73.7,29.94,SSW,209,1.0,6.0,62,0.00,,,0.00,WeatherCatV1.21B27,2013-10-18 17:13:00,
2013-10-18 13:18:00,88.4,75.6,29.94,SW,229,1.0,6.0,66,0.00,,,0.00,WeatherCatV1.21B27,2013-10-18 17:18:00,
2013-10-18 13:23:00,88.5,74.3,29.93,South,190,1.0,1.0,63,0.00,,,0.00,WeatherCatV1.21B27,2013-10-18 17:23:00,
2013-10-18 13:28:00,88.6,74.3,29.93,SSW,196,0.0,4.0,63,0.00,,,0.00,WeatherCatV1.21B27,2013-10-18 17:28:00,
2013-10-18 13:33:00,88.6,74.3,29.93,SW,219,4.0,4.0,63,0.00,,,0.00,WeatherCatV1.21B27,2013-10-18 17:33:00,
2013-10-18 13:35:00,88.7,74.9,29.93,WSW,248,2.0,7.0,64,0.00,,,0.00,WeatherCatV1.21B27,2013-10-18 17:35:00,
2013-10-18 13:40:00,88.9,75.6,29.92,SW,230,1.0,5.0,65,0.00,,,0.00,WeatherCatV1.21B27,2013-10-18 17:40:00,
2013-10-18 13:45:00,89.3,75.0,29.92,WSW,242,0.0,3.0,63,0.00,,,0.00,WeatherCatV1.21B27,2013-10-18 17:45:00,
2013-10-18 13:50:00,89.3,74.1,29.92,SW,214,1.0,5.0,61,0.00,,,0.00,WeatherCatV1.21B27,2013-10-18 17:50:00,
2013-10-18 13:55:00,89.5,73.7,29.92,West,259,1.0,2.0,60,0.00,,,0.00,WeatherCatV1.21B27,2013-10-18 17:55:00,
2013-10-18 14:00:00,89.9,75.6,29.92,WSW,242,0.0,4.0,63,0.00,,,0.00,WeatherCatV1.21B27,2013-10-18 18:00:00,
2013-10-18 14:05:00,89.9,74.6,29.92,SW,219,1.0,2.0,61,0.00,,,0.00,WeatherCatV1.21B27,2013-10-18 18:05:00,
2013-10-18 14:10:00,89.7,73.9,29.91,WNW,283,5.0,7.0,60,0.00,,,0.00,WeatherCatV1.21B27,2013-10-18 18:10:00,
2013-10-18 14:15:00,89.6,73.8,29.91,West,261,0.0,8.0,60,0.00,,,0.00,WeatherCatV1.21B27,2013-10-18 18:15:00,
2013-10-18 14:20:00,89.6,73.3,29.91,South,177,0.0,7.0,59,0.00,,,0.00,WeatherCatV1.21B27,2013-10-18 18:20:00,
2013-10-18 14:25:00,89.5,74.2,29.91,West,281,1.0,2.0,61,0.00,,,0.00,WeatherCatV1.21B27,2013-10-18 18:25:00,
2013-10-18 14:30:00,89.3,73.6,29.90,SW,216,0.0,3.0,60,0.00,,,0.00,WeatherCatV1.21B27,2013-10-18 18:30:00,
2013-10-18 14:35:00,89.3,73.1,29.90,South,186,2.0,3.0,59,0.00,,,0.00,WeatherCatV1.21B27,2013-10-18 18:35:00,
2013-10-18 14:40:00,89.1,73.9,29.90,West,275,2.0,2.0,61,0.00,,,0.00,WeatherCatV1.21B27,2013-10-18 18:40:00,
2013-10-18 14:45:00,88.9,74.2,29.90,SSW,213,1.0,5.0,62,0.00,,,0.00,WeatherCatV1.21B27,2013-10-18 18:45:00,
2013-10-18 14:50:00,88.6,74.3,29.90,WSW,248,1.0,6.0,63,0.00,,,0.00,WeatherCatV1.21B27,2013-10-18 18:50:00,
2013-10-18 14:55:00,88.4,73.7,29.90,SW,223,1.0,5.0,62,0.00,,,0.00,WeatherCatV1.21B27,2013-10-18 18:55:00,
2013-10-18 15:00:00,87.9,73.2,29.90,SSW,196,0.0,1.0,62,0.00,,,0.00,WeatherCatV1.21B27,2013-10-18 19:00:00,
2013-10-18 15:05:00,87.8,74.1,29.90,WNW,302,1.0,2.0,64,0.00,,,0.00,WeatherCatV1.21B27,2013-10-18 19:05:00,
2013-10-18 15:10:00,87.9,74.2,29.90,SW,222,0.0,2.0,64,0.00,,,0.00,WeatherCatV1.21B27,2013-10-18 19:10:00,
2013-10-18 15:15:00,88.1,73.9,29.90,SW,223,0.0,3.0,63,0.00,,,0.00,WeatherCatV1.21B27,2013-10-18 19:15:00,
2013-10-18 15:20:00,88.2,74.4,29.90,North,9,1.0,6.0,64,0.00,,,0.00,WeatherCatV1.21B27,2013-10-18 19:20:00,
2013-10-18 15:25:00,88.2,74.0,29.90,West,260,2.0,4.0,63,0.00,,,0.00,WeatherCatV1.21B27,2013-10-18 19:25:00,
2013-10-18 15:30:00,88.1,72.4,29.90,SSE,156,1.0,3.0,60,0.00,,,0.00,WeatherCatV1.21B27,2013-10-18 19:30:00,
2013-10-18 15:35:00,88.0,74.3,29.90,West,273,1.0,2.0,64,0.00,,,0.00,WeatherCatV1.21B27,2013-10-18 19:35:00,
2013-10-18 15:40:00,87.9,74.2,29.90,WSW,238,2.0,5.0,64,0.00,,,0.00,WeatherCatV1.21B27,2013-10-18 19:40:00,
2013-10-18 15:45:00,87.9,74.6,29.90,WSW,238,0.0,6.0,65,0.00,,,0.00,WeatherCatV1.21B27,2013-10-18 19:45:00,
2013-10-18 15:50:00,87.7,74.0,29.90,West,272,0.0,2.0,64,0.00,,,0.00,WeatherCatV1.21B27,2013-10-18 19:50:00,
2013-10-18 15:55:00,87.7,74.4,29.90,SW,235,0.0,6.0,65,0.00,,,0.00,WeatherCatV1.21B27,2013-10-18 19:55:00,
2013-10-18 16:00:00,87.5,74.2,29.90,WSW,251,1.0,3.0,65,0.00,,,0.00,WeatherCatV1.21B27,2013-10-18 20:00:00,
2013-10-18 16:05:00,87.5,74.2,29.90,WSW,249,0.0,6.0,65,0.00,,,0.00,WeatherCatV1.21B27,2013-10-18 20:05:00,
2013-10-18 16:10:00,87.4,74.2,29.90,West,266,2.0,6.0,65,0.00,,,0.00,WeatherCatV1.21B27,2013-10-18 20:10:00,
2013-10-18 16:15:00,87.3,74.1,29.90,SSE,164,1.0,8.0,65,0.00,,,0.00,WeatherCatV1.21B27,2013-10-18 20:15:00,
2013-10-18 16:20:00,86.9,74.1,29.89,SW,232,0.0,1.0,66,0.00,,,0.00,WeatherCatV1.21B27,2013-10-18 20:20:00,
2013-10-18 16:25:00,86.6,74.3,29.89,SW,222,2.0,4.0,67,0.00,,,0.00,WeatherCatV1.21B27,2013-10-18 20:25:00,
2013-10-18 16:30:00,86.6,74.3,29.89,WSW,237,2.0,7.0,67,0.00,,,0.00,WeatherCatV1.21B27,2013-10-18 20:30:00,
2013-10-18 16:35:00,86.6,74.3,29.89,WNW,294,2.0,6.0,67,0.00,,,0.00,WeatherCatV1.21B27,2013-10-18 20:35:00,
2013-10-18 16:40:00,86.4,74.1,29.89,SSW,207,2.0,5.0,67,0.00,,,0.00,WeatherCatV1.21B27,2013-10-18 20:40:00,
2013-10-18 16:45:00,86.3,74.9,29.89,SSW,196,0.0,2.0,69,0.00,,,0.00,WeatherCatV1.21B27,2013-10-18 20:45:00,
2013-10-18 16:50:00,86.2,74.8,29.89,WNW,288,2.0,6.0,69,0.00,,,0.00,WeatherCatV1.21B27,2013-10-18 20:50:00,
2013-10-18 16:55:00,86.1,74.3,29.89,WNW,282,0.0,4.0,68,0.00,,,0.00,WeatherCatV1.21B27,2013-10-18 20:55:00,
2013-10-18 17:00:00,86.0,74.6,29.90,West,261,2.0,5.0,69,0.00,,,0.00,WeatherCatV1.21B27,2013-10-18 21:00:00,
2013-10-18 17:05:00,85.9,74.9,29.90,West,270,1.0,2.0,70,0.00,,,0.00,WeatherCatV1.21B27,2013-10-18 21:05:00,
2013-10-18 17:10:00,85.8,74.0,29.89,South,186,1.0,6.0,68,0.00,,,0.00,WeatherCatV1.21B27,2013-10-18 21:10:00,
2013-10-18 17:15:00,85.7,74.3,29.89,West,281,4.0,4.0,69,0.00,,,0.00,WeatherCatV1.21B27,2013-10-18 21:15:00,
2013-10-18 17:20:00,85.7,74.3,29.89,WNW,288,2.0,6.0,69,0.00,,,0.00,WeatherCatV1.21B27,2013-10-18 21:20:00,
2013-10-18 17:25:00,85.6,74.2,29.89,East,98,0.0,1.0,69,0.00,,,0.00,WeatherCatV1.21B27,2013-10-18 21:25:00,
2013-10-18 17:30:00,85.5,73.7,29.89,West,263,0.0,2.0,68,0.00,,,0.00,WeatherCatV1.21B27,2013-10-18 21:30:00,
2013-10-18 17:35:00,85.3,73.5,29.89,West,275,0.0,4.0,68,0.00,,,0.00,WeatherCatV1.21B27,2013-10-18 21:35:00,
2013-10-18 17:40:00,85.4,74.5,29.89,SW,230,2.0,4.0,70,0.00,,,0.00,WeatherCatV1.21B27,2013-10-18 21:40:00,
2013-10-18 17:45:00,85.3,74.4,29.89,West,275,0.0,3.0,70,0.00,,,0.00,WeatherCatV1.21B27,2013-10-18 21:45:00,
2013-10-18 17:50:00,85.2,74.3,29.89,WSW,247,0.0,1.0,70,0.00,,,0.00,WeatherCatV1.21B27,2013-10-18 21:50:00,
2013-10-18 17:55:00,85.1,74.6,29.89,West,270,1.0,4.0,71,0.00,,,0.00,WeatherCatV1.21B27,2013-10-18 21:55:00,
2013-10-18 18:00:00,84.9,74.4,29.89,WSW,248,0.0,5.0,71,0.00,,,0.00,WeatherCatV1.21B27,2013-10-18 22:00:00,
2013-10-18 18:05:00,84.6,74.1,29.89,SSW,207,0.0,0.0,71,0.00,,,0.00,WeatherCatV1.21B27,2013-10-18 22:05:00,
2013-10-18 18:10:00,84.4,73.9,29.89,West,278,1.0,3.0,71,0.00,,,0.00,WeatherCatV1.21B27,2013-10-18 22:10:00,
2013-10-18 18:15:00,84.2,74.2,29.90,WNW,289,5.0,6.0,72,0.00,,,0.00,WeatherCatV1.21B27,2013-10-18 22:15:00,
2013-10-18 18:20:00,83.9,74.3,29.90,WNW,284,0.0,4.0,73,0.00,,,0.00,WeatherCatV1.21B27,2013-10-18 22:20:00,
2013-10-18 18:25:00,83.6,74.4,29.90,WNW,284,0.0,5.0,74,0.00,,,0.00,WeatherCatV1.21B27,2013-10-18 22:25:00,
2013-10-18 18:30:00,83.3,74.5,29.90,West,274,1.0,2.0,75,0.00,,,0.00,WeatherCatV1.21B27,2013-10-18 22:30:00,
2013-10-18 18:35:00,83.1,74.3,29.90,West,271,0.0,2.0,75,0.00,,,0.00,WeatherCatV1.21B27,2013-10-18 22:35:00,
2013-10-18 18:40:00,82.9,73.7,29.90,West,272,1.0,4.0,74,0.00,,,0.00,WeatherCatV1.21B27,2013-10-18 22:40:00,
2013-10-18 18:45:00,82.7,74.3,29.90,West,271,0.0,4.0,76,0.00,,,0.00,WeatherCatV1.21B27,2013-10-18 22:45:00,
2013-10-18 18:50:00,82.6,73.8,29.91,West,271,0.0,3.0,75,0.00,,,0.00,WeatherCatV1.21B27,2013-10-18 22:50:00,
2013-10-18 18:55:00,82.4,74.1,29.91,West,271,0.0,0.0,76,0.00,,,0.00,WeatherCatV1.21B27,2013-10-18 22:55:00,
2013-10-18 19:00:00,82.1,73.8,29.91,West,271,1.0,2.0,76,0.00,,,0.00,WeatherCatV1.21B27,2013-10-18 23:00:00,
2013-10-18 19:05:00,81.9,73.6,29.91,West,271,0.0,4.0,76,0.00,,,0.00,WeatherCatV1.21B27,2013-10-18 23:05:00,
2013-10-18 19:10:00,81.7,73.4,29.91,West,272,2.0,4.0,76,0.00,,,0.00,WeatherCatV1.21B27,2013-10-18 23:10:00,
2013-10-18 19:15:00,81.6,73.7,29.91,West,272,0.0,1.0,77,0.00,,,0.00,WeatherCatV1.21B27,2013-10-18 23:15:00,
2013-10-18 19:20:00,81.4,73.5,29.92,West,273,0.0,2.0,77,0.00,,,0.00,WeatherCatV1.21B27,2013-10-18 23:20:00,
2013-10-18 19:25:00,81.2,73.3,29.92,West,275,1.0,4.0,77,0.00,,,0.00,WeatherCatV1.21B27,2013-10-18 23:25:00,
2013-10-18 19:30:00,81.0,73.1,29.92,West,274,1.0,2.0,77,0.00,,,0.00,WeatherCatV1.21B27,2013-10-18 23:30:00,
2013-10-18 19:35:00,81.0,73.5,29.92,West,275,0.0,1.0,78,0.00,,,0.00,WeatherCatV1.21B27,2013-10-18 23:35:00,
2013-10-18 19:40:00,80.8,73.3,29.92,WNW,286,0.0,3.0,78,0.00,,,0.00,WeatherCatV1.21B27,2013-10-18 23:40:00,
2013-10-18 19:45:00,80.7,73.2,29.92,WNW,286,3.0,4.0,78,0.00,,,0.00,WeatherCatV1.21B27,2013-10-18 23:45:00,
2013-10-18 19:50:00,80.5,73.4,29.92,WNW,286,1.0,5.0,79,0.00,,,0.00,WeatherCatV1.21B27,2013-10-18 23:50:00,
2013-10-18 19:55:00,80.3,73.2,29.92,WNW,286,0.0,1.0,79,0.00,,,0.00,WeatherCatV1.21B27,2013-10-18 23:55:00,
2013-10-18 20:00:00,80.2,73.1,29.92,WNW,286,0.0,0.0,79,0.00,,,0.00,WeatherCatV1.21B27,2013-10-19 00:00:00,
2013-10-18 20:05:00,80.0,72.9,29.92,WNW,286,0.0,0.0,79,0.00,,,0.00,WeatherCatV1.21B27,2013-10-19 00:05:00,
2013-10-18 20:10:00,80.0,72.9,29.92,WNW,286,0.0,0.0,79,0.00,,,0.00,WeatherCatV1.21B27,2013-10-19 00:10:00,
2013-10-18 20:15:00,79.8,73.1,29.92,WNW,286,0.0,0.0,80,0.00,,,0.00,WeatherCatV1.21B27,2013-10-19 00:15:00,
2013-10-18 20:20:00,79.7,73.0,29.93,WNW,286,0.0,0.0,80,0.00,,,0.00,WeatherCatV1.21B27,2013-10-19 00:20:00,
2013-10-18 20:25:00,79.5,72.8,29.92,WNW,286,0.0,0.0,80,0.00,,,0.00,WeatherCatV1.21B27,2013-10-19 00:25:00,
2013-10-18 20:30:00,79.3,72.9,29.93,WNW,286,0.0,0.0,81,0.00,,,0.00,WeatherCatV1.21B27,2013-10-19 00:30:00,
2013-10-18 20:35:00,79.2,72.8,29.93,WNW,286,0.0,0.0,81,0.00,,,0.00,WeatherCatV1.21B27,2013-10-19 00:35:00,
2013-10-18 20:40:00,79.1,72.8,29.93,WNW,286,0.0,0.0,81,0.00,,,0.00,WeatherCatV1.21B27,2013-10-19 00:40:00,
2013-10-18 20:45:00,79.1,72.8,29.93,WNW,286,0.0,0.0,81,0.00,,,0.00,WeatherCatV1.21B27,2013-10-19 00:45:00,
2013-10-18 20:50:00,79.1,72.8,29.93,WNW,286,0.0,0.0,81,0.00,,,0.00,WeatherCatV1.21B27,2013-10-19 00:50:00,
2013-10-18 20:55:00,79.2,72.8,29.93,WNW,286,0.0,0.0,81,0.00,,,0.00,WeatherCatV1.21B27,2013-10-19 00:55:00,
2013-10-18 21:00:00,79.2,72.8,29.93,WNW,286,0.0,0.0,81,0.00,,,0.00,WeatherCatV1.21B27,2013-10-19 01:00:00,
2013-10-18 21:05:00,79.3,72.9,29.93,WNW,286,0.0,0.0,81,0.00,,,0.00,WeatherCatV1.21B27,2013-10-19 01:05:00,
2013-10-18 21:10:00,79.3,72.6,29.93,WNW,286,0.0,0.0,80,0.00,,,0.00,WeatherCatV1.21B27,2013-10-19 01:10:00,
2013-10-18 21:15:00,79.3,72.6,29.93,WNW,286,0.0,0.0,80,0.00,,,0.00,WeatherCatV1.21B27,2013-10-19 01:15:00,
2013-10-18 21:20:00,79.2,72.8,29.93,WNW,286,0.0,0.0,81,0.00,,,0.00,WeatherCatV1.21B27,2013-10-19 01:20:00,
2013-10-18 21:25:00,79.0,72.7,29.93,WNW,286,0.0,0.0,81,0.00,,,0.00,WeatherCatV1.21B27,2013-10-19 01:25:00,
2013-10-18 21:30:00,78.8,72.5,29.93,WNW,286,0.0,0.0,81,0.00,,,0.00,WeatherCatV1.21B27,2013-10-19 01:30:00,
2013-10-18 21:35:00,78.6,72.3,29.93,WNW,286,0.0,0.0,81,0.00,,,0.00,WeatherCatV1.21B27,2013-10-19 01:35:00,
2013-10-18 21:40:00,78.3,72.3,29.93,WNW,286,0.0,0.0,82,0.00,,,0.00,WeatherCatV1.21B27,2013-10-19 01:40:00,
2013-10-18 21:45:00,78.0,72.4,29.93,WNW,286,0.0,0.0,83,0.00,,,0.00,WeatherCatV1.21B27,2013-10-19 01:45:00,
2013-10-18 21:50:00,77.9,72.3,29.93,WNW,286,0.0,0.0,83,0.00,,,0.00,WeatherCatV1.21B27,2013-10-19 01:50:00,
2013-10-18 21:55:00,77.6,72.0,29.93,WNW,286,0.0,0.0,83,0.00,,,0.00,WeatherCatV1.21B27,2013-10-19 01:55:00,
2013-10-18 22:00:00,77.3,72.1,29.94,North,5,0.0,0.0,84,0.00,,,0.00,WeatherCatV1.21B27,2013-10-19 02:00:00,
2013-10-18 22:05:00,77.2,72.0,29.94,North,5,0.0,0.0,84,0.00,,,0.00,WeatherCatV1.21B27,2013-10-19 02:05:00,
2013-10-18 22:10:00,77.0,71.8,29.94,North,5,0.0,0.0,84,0.00,,,0.00,WeatherCatV1.21B27,2013-10-19 02:10:00,
2013-10-18 22:15:00,76.9,71.7,29.94,North,5,0.0,0.0,84,0.00,,,0.00,WeatherCatV1.21B27,2013-10-19 02:15:00,
2013-10-18 22:20:00,76.8,71.9,29.94,North,5,0.0,0.0,85,0.00,,,0.00,WeatherCatV1.21B27,2013-10-19 02:20:00,
2013-10-18 22:25:00,76.7,71.8,29.94,North,5,0.0,0.0,85,0.00,,,0.00,WeatherCatV1.21B27,2013-10-19 02:25:00,
2013-10-18 22:30:00,76.5,71.6,29.94,North,5,0.0,0.0,85,0.00,,,0.00,WeatherCatV1.21B27,2013-10-19 02:30:00,
2013-10-18 22:35:00,76.4,71.9,29.94,North,5,0.0,2.0,86,0.00,,,0.00,WeatherCatV1.21B27,2013-10-19 02:35:00,
2013-10-18 22:40:00,76.2,71.7,29.94,NNE,14,0.0,0.0,86,0.00,,,0.00,WeatherCatV1.21B27,2013-10-19 02:40:00,
2013-10-18 22:45:00,76.1,71.6,29.94,NNE,14,0.0,0.0,86,0.00,,,0.00,WeatherCatV1.21B27,2013-10-19 02:45:00,
2013-10-18 22:50:00,76.0,71.5,29.94,NNE,14,0.0,0.0,86,0.00,,,0.00,WeatherCatV1.21B27,2013-10-19 02:50:00,
2013-10-18 22:55:00,75.9,71.7,29.94,NNE,14,0.0,0.0,87,0.00,,,0.00,WeatherCatV1.21B27,2013-10-19 02:55:00,
2013-10-18 23:00:00,75.8,71.6,29.94,NNE,14,0.0,0.0,87,0.00,,,0.00,WeatherCatV1.21B27,2013-10-19 03:00:00,
2013-10-18 23:05:00,75.7,71.5,29.94,NNE,14,0.0,0.0,87,0.00,,,0.00,WeatherCatV1.21B27,2013-10-19 03:05:00,
2013-10-18 23:10:00,75.6,71.4,29.94,NNE,14,0.0,0.0,87,0.00,,,0.00,WeatherCatV1.21B27,2013-10-19 03:10:00,
2013-10-18 23:15:00,75.6,71.4,29.94,NNE,14,0.0,1.0,87,0.00,,,0.00,WeatherCatV1.21B27,2013-10-19 03:15:00,
2013-10-18 23:20:00,75.5,71.7,29.94,NNE,14,0.0,0.0,88,0.00,,,0.00,WeatherCatV1.21B27,2013-10-19 03:20:00,
2013-10-18 23:25:00,75.4,71.6,29.94,NNE,14,0.0,0.0,88,0.00,,,0.00,WeatherCatV1.21B27,2013-10-19 03:25:00,
2013-10-18 23:30:00,75.4,71.6,29.94,NNE,14,0.0,0.0,88,0.00,,,0.00,WeatherCatV1.21B27,2013-10-19 03:30:00,
2013-10-18 23:35:00,75.3,71.5,29.94,NNE,14,0.0,0.0,88,0.00,,,0.00,WeatherCatV1.21B27,2013-10-19 03:35:00,
2013-10-18 23:40:00,75.2,71.4,29.94,NNE,14,0.0,0.0,88,0.00,,,0.00,WeatherCatV1.21B27,2013-10-19 03:40:00,
2013-10-18 23:45:00,75.1,71.3,29.94,NNE,14,0.0,0.0,88,0.00,,,0.00,WeatherCatV1.21B27,2013-10-19 03:45:00,
2013-10-18 23:50:00,75.1,71.3,29.94,NNE,14,0.0,0.0,88,0.00,,,0.00,WeatherCatV1.21B27,2013-10-19 03:50:00,
2013-10-18 23:55:00,75.0,71.2,29.94,NNE,14,0.0,0.0,88,0.00,,,0.00,WeatherCatV1.21B27,2013-10-19 03:55:00,